TimeAEST,TemperatureF,Dew PointF,Humidity,Sea Level PressureIn,VisibilityMPH,Wind Direction,Wind SpeedMPH,Gust SpeedMPH,PrecipitationIn,Events,Conditions,WindDirDegrees,DateUTC
12:00 AM,69,65,82,30.10,,South,8.1,,,,Overcast,190,2013-08-23 14:00:00
12:00 AM,68.0,64.4,88,30.09,6.2,South,8.1,-,N/A,Rain,Rain Showers,190,2013-08-23 14:00:00
12:30 AM,68.0,66.2,94,30.06,6.2,ESE,5.8,-,N/A,,Mostly Cloudy,110,2013-08-23 14:30:00
1:00 AM,68,66,90,30.09,,SSW,4.6,,,,,210,2013-08-23 15:00:00
1:00 AM,68.0,66.2,94,30.06,6.2,SSW,4.6,-,N/A,,Mostly Cloudy,210,2013-08-23 15:00:00
1:30 AM,68.0,66.2,94,30.06,6.2,NNW,3.5,-,N/A,,Mostly Cloudy,330,2013-08-23 15:30:00
2:00 AM,68.0,66.2,94,30.06,6.2,North,1.2,-,N/A,,Mostly Cloudy,360,2013-08-23 16:00:00
2:30 AM,68.0,66.2,94,30.06,6.2,WSW,5.8,-,N/A,,Mostly Cloudy,250,2013-08-23 16:30:00
3:00 AM,68,64,85,30.05,,Calm,Calm,,,,Overcast,,2013-08-23 17:00:00
3:00 AM,68.0,64.4,88,30.04,6.2,Calm,Calm,-,N/A,,Mostly Cloudy,0,2013-08-23 17:00:00
3:30 AM,69.8,62.6,78,30.04,6.2,South,5.8,-,N/A,,Mostly Cloudy,170,2013-08-23 17:30:00
4:00 AM,69,63,76,30.06,,SSE,5.8,,,,,160,2013-08-23 18:00:00
4:00 AM,68.0,62.6,83,30.04,6.2,SSE,5.8,-,N/A,,Mostly Cloudy,160,2013-08-23 18:00:00
4:30 AM,68.0,62.6,83,30.04,6.2,SSE,8.1,-,N/A,,Mostly Cloudy,150,2013-08-23 18:30:00
5:00 AM,68.0,62.6,83,30.06,6.2,SSE,9.2,-,N/A,,Scattered Clouds,150,2013-08-23 19:00:00
5:30 AM,68.0,62.6,83,30.06,6.2,South,6.9,-,N/A,,Scattered Clouds,170,2013-08-23 19:30:00
6:00 AM,67,62,79,30.09,,SE,9.2,,,,Overcast,140,2013-08-23 20:00:00
6:00 AM,66.2,62.6,88,30.06,6.2,SE,9.2,-,N/A,,Scattered Clouds,140,2013-08-23 20:00:00
6:30 AM,66.2,62.6,88,30.09,6.2,SE,10.4,-,N/A,,Scattered Clouds,140,2013-08-23 20:30:00
7:00 AM,68,61,73,30.11,,SSE,9.2,,,,,150,2013-08-23 21:00:00
7:00 AM,68.0,60.8,78,30.09,6.2,SSE,9.2,-,N/A,,Partly Cloudy,150,2013-08-23 21:00:00
7:30 AM,71.6,60.8,69,30.09,6.2,South,11.5,-,N/A,,Partly Cloudy,180,2013-08-23 21:30:00
8:00 AM,71.6,60.8,69,30.12,6.2,South,10.4,-,N/A,,Partly Cloudy,170,2013-08-23 22:00:00
8:30 AM,73.4,60.8,65,30.12,6.2,South,12.7,-,N/A,,Partly Cloudy,170,2013-08-23 22:30:00
9:00 AM,73.4,60.8,65,30.12,6.2,South,11.5,-,N/A,,Partly Cloudy,170,2013-08-23 23:00:00
9:30 AM,75.2,60.8,61,30.12,6.2,South,11.5,-,N/A,,Partly Cloudy,170,2013-08-23 23:30:00
10:00 AM,78,59,42,30.15,,SSE,15.0,,,,,150,2013-08-24 00:00:00
10:00 AM,78.8,59.0,51,30.12,6.2,SSE,15.0,-,N/A,,Partly Cloudy,150,2013-08-24 00:00:00
11:00 AM,78.8,53.6,42,30.12,6.2,ESE,17.3,-,N/A,,Partly Cloudy,120,2013-08-24 01:00:00
11:30 AM,80.6,53.6,39,30.12,6.2,SE,17.3,-,N/A,,Partly Cloudy,130,2013-08-24 01:30:00
12:00 PM,82.4,53.6,37,30.09,6.2,ESE,18.4,-,N/A,,Partly Cloudy,120,2013-08-24 02:00:00
12:30 PM,80.6,51.8,37,30.09,6.2,ESE,19.6,-,N/A,,Partly Cloudy,120,2013-08-24 02:30:00
1:00 PM,80,49,23,30.09,,ESE,18.4,,,,,120,2013-08-24 03:00:00
1:00 PM,80.6,50.0,34,30.06,6.2,ESE,18.4,-,N/A,,Partly Cloudy,120,2013-08-24 03:00:00
1:30 PM,80.6,50.0,34,30.06,6.2,ESE,18.4,-,N/A,,Partly Cloudy,120,2013-08-24 03:30:00
2:00 PM,80.6,53.6,39,30.04,6.2,ESE,20.7,-,N/A,,Partly Cloudy,110,2013-08-24 04:00:00
2:30 PM,80.6,55.4,42,30.04,6.2,ESE,19.6,-,N/A,,Partly Cloudy,120,2013-08-24 04:30:00
2:53 PM,80.6,53.6,39,30.04,6.2,SE,19.6,32.2,N/A,,Partly Cloudy,130,2013-08-24 04:53:00
3:00 PM,79,52,29,30.05,19,ESE,19.6,,,,Partly Cloudy,120,2013-08-24 05:00:00
3:00 PM,78.8,51.8,39,30.04,6.2,ESE,19.6,32.2,N/A,,Partly Cloudy,120,2013-08-24 05:00:00
3:30 PM,78.8,53.6,42,30.04,6.2,SE,17.3,-,N/A,,Partly Cloudy,130,2013-08-24 05:30:00
4:00 PM,77,56,37,30.06,,SE,20.7,,,,,130,2013-08-24 06:00:00
4:00 PM,77.0,55.4,47,30.04,6.2,SE,20.7,-,N/A,,Partly Cloudy,130,2013-08-24 06:00:00
4:30 PM,77.0,55.4,47,30.04,6.2,SE,17.3,-,N/A,,Partly Cloudy,130,2013-08-24 06:30:00
5:00 PM,77.0,55.4,47,30.06,6.2,SE,18.4,-,N/A,,Partly Cloudy,130,2013-08-24 07:00:00
5:30 PM,73.4,55.4,53,30.06,6.2,SE,17.3,-,N/A,,Partly Cloudy,140,2013-08-24 07:30:00
6:00 PM,73,58,49,30.08,,SE,12.7,,,,,130,2013-08-24 08:00:00
6:00 PM,73.4,57.2,57,30.06,6.2,SE,12.7,-,N/A,,Partly Cloudy,130,2013-08-24 08:00:00
6:30 PM,71.6,57.2,60,30.06,6.2,SE,12.7,-,N/A,,Partly Cloudy,140,2013-08-24 08:30:00
7:00 PM,70,58,58,30.11,,SE,10.4,,,,,140,2013-08-24 09:00:00
7:00 PM,69.8,59.0,68,30.09,6.2,SE,10.4,-,N/A,,Partly Cloudy,140,2013-08-24 09:00:00
7:30 PM,68.0,57.2,68,30.09,6.2,South,6.9,-,N/A,,Partly Cloudy,170,2013-08-24 09:30:00
8:00 PM,69.8,55.4,60,30.09,6.2,South,5.8,-,N/A,,Partly Cloudy,180,2013-08-24 10:00:00
8:30 PM,69.8,55.4,60,30.12,6.2,South,8.1,-,N/A,,Scattered Clouds,180,2013-08-24 10:30:00
9:00 PM,70,55,49,30.13,,South,8.1,,,,Overcast,180,2013-08-24 11:00:00
9:00 PM,69.8,55.4,60,30.12,6.2,South,8.1,-,N/A,,Scattered Clouds,180,2013-08-24 11:00:00
9:30 PM,71.6,53.6,53,30.12,6.2,South,10.4,-,N/A,,Scattered Clouds,180,2013-08-24 11:30:00
10:00 PM,70,54,47,30.14,,South,10.4,,,,,170,2013-08-24 12:00:00
10:00 PM,69.8,53.6,56,30.12,6.2,South,10.4,-,N/A,,Scattered Clouds,170,2013-08-24 12:00:00
10:30 PM,69.8,53.6,56,30.12,6.2,South,9.2,-,N/A,,Scattered Clouds,170,2013-08-24 12:30:00
11:00 PM,69.8,53.6,56,30.12,6.2,SSE,8.1,-,N/A,,Scattered Clouds,160,2013-08-24 13:00:00
11:30 PM,68.0,53.6,60,30.12,6.2,SE,9.2,-,N/A,,Scattered Clouds,140,2013-08-24 13:30:00